Simultaneous Nadir Overpasses (SNOs) Predictions

Prediction of SNOs between GOES-16 and METOP-C Satellite Orbit:

Table of predicted SNOs for the next 14.0 days since TLE Epoch: 4/19/2019
Index Date Time (GOES-16) GOES-16 Lat,Lon METOP-C Lat,Lon Distance(km) Time Diff (sec)
1 04/20/2019 14:35:15 -0.01, -75.21 0.29, -76.45 142.77 80
2 04/21/2019 14:17:17 -0.01, -75.21 -0.84, -71.47 426.61 80
3 04/23/2019 02:36:19 0.01, -75.20 -0.16, -76.07 99.17 80
4 04/24/2019 02:13:00 0.00, -75.20 0.91, -71.07 470.45 80
5 04/25/2019 14:31:52 -0.00, -75.23 0.07, -75.64 45.59 80
6 04/28/2019 02:32:55 -0.00, -75.24 -0.01, -75.24 0.34 80
7 04/30/2019 14:31:08 0.00, -75.29 -0.09, -74.80 55.27 80
8 05/02/2019 02:50:10 -0.00, -75.30 -0.92, -79.41 468.35 80
9 05/03/2019 02:26:52 -0.01, -75.32 0.21, -74.42 102.55 80




NCC Satellite Simultaneous Nadir Overpasses (SNOs) Prediction Service
